Weather History for Mason, MI

Change the Weather History Date:

Wednesday, November 6, 2013

  Actual Average (KLAN) Record (KLAN)
Temperature  
Mean Temperature 48 °F 43 °F  
Max Temperature 56 °F 51 °F 77 °F (1975)
Min Temperature 41 °F 35 °F 4 °F (1877)
Degree Days  
Heating Degree Days 16 22  
Month to date heating degree days 125  
Since 1 July heating degree days 775  
Cooling Degree Days 0 0  
Month to date cooling degree days 0  
Year to date cooling degree days 625  
Moisture  
Dew Point 45 °F    
Average Humidity 79    
Maximum Humidity 89    
Minimum Humidity 57    
Precipitation  
Precipitation 0.00 in 0.09 in 1.51 in (1880)
Month to date precipitation 0.57  
Year to date precipitation 27.69  
Snow  
Snow 0.00 in 0.10 in 12.00 in (1880)
Month to date snowfall 0.3  
Since 1 July snowfall 0.7  
Since 1 September snowfall 0.7  
Snow Depth -    
Sea Level Pressure  
Sea Level Pressure 29.92 in    
Wind  
Wind Speed 10 mph (SSW)    
Max Wind Speed 23 mph    
Max Gust Speed 31 mph    
Visibility 9 miles    
Events Rain    
T = Trace of Precipitation, MM = Missing Value Source: NWS Daily Summary

Daily Weather History Graph

Daily Weather History Graph

Search for Another Location

Airport:

Trip Planner

Search our weather history database for the weather conditions in past years. The results will help you decide how hot, cold, wet, or windy it might be!

Date:

Astronomy

Nov. 06, 2013 Rise Set
Actual Time 7:17 AM EST 5:24 PM EST
Civil Twilight 6:48 AM EST 5:53 PM EST
Nautical Twilight 6:14 AM EST 6:27 PM EST
Astronomical Twilight 5:41 AM EST 7:00 PM EST
Moon 10:33 AM EST (11/6) 8:25 PM EST (11/6)
Length of Visible Light 11h 05m
Length of Day
10h 06m
Waxing Crescent, 13% of the Moon is Illuminated
Nov 6
Waxing Crescent
Nov 10
First Quarter
Nov 17
Full
Nov 25
Last Quarter
Dec 2
New

Hourly Weather History & Observations

Time (EST) Temp. Windchill Dew Point Humidity Pressure Visibility Wind Dir Wind Speed Gust Speed Precip Events Conditions
12:13 AM 52.9 °F - 41.5 °F 65% 30.12 in 10.0 mi SSE 10.4 mph 16.1 mph N/A   Clear
12:34 AM 52.9 °F - 41.4 °F 65% 30.11 in 10.0 mi South 10.4 mph 16.1 mph N/A   Scattered Clouds
12:53 AM 53.1 °F - 41.2 °F 64% 30.10 in 10.0 mi South 10.4 mph - N/A   Scattered Clouds
1:14 AM 53.6 °F - 41.0 °F 62% 30.09 in 10.0 mi South 11.5 mph 16.1 mph N/A   Mostly Cloudy
1:34 AM 54.0 °F - 40.5 °F 60% 30.08 in 10.0 mi South 10.4 mph 16.1 mph N/A   Overcast
1:53 AM 52.7 °F - 41.4 °F 65% 30.07 in 10.0 mi South 10.4 mph - N/A Rain Light Rain
2:14 AM 53.6 °F - 40.3 °F 61% 30.06 in 10.0 mi South 9.2 mph - N/A   Overcast
2:34 AM 54.5 °F - 39.7 °F 57% 30.06 in 10.0 mi South 5.8 mph - N/A   Overcast
2:53 AM 53.8 °F - 41.4 °F 63% 30.04 in 10.0 mi South 10.4 mph - N/A   Overcast
3:14 AM 54.0 °F - 41.7 °F 63% 30.03 in 10.0 mi South 9.2 mph 18.4 mph N/A   Overcast
3:34 AM 54.0 °F - 41.5 °F 63% 30.01 in 10.0 mi South 12.7 mph 17.3 mph N/A   Overcast
3:53 AM 54.1 °F - 41.5 °F 62% 30.00 in 10.0 mi South 8.1 mph - N/A   Overcast
4:14 AM 54.5 °F - 41.2 °F 61% 29.99 in 10.0 mi South 10.4 mph - N/A   Overcast
4:34 AM 54.1 °F - 41.0 °F 61% 29.99 in 10.0 mi South 6.9 mph - N/A   Overcast
4:53 AM 54.3 °F - 41.0 °F 61% 29.97 in 10.0 mi South 10.4 mph - N/A   Overcast
5:14 AM 53.8 °F - 41.4 °F 63% 29.97 in 10.0 mi South 9.2 mph - N/A   Overcast
5:33 AM 53.8 °F - 41.4 °F 63% 29.96 in 10.0 mi South 8.1 mph - N/A   Overcast
5:53 AM 53.8 °F - 42.1 °F 65% 29.96 in 10.0 mi South 6.9 mph - N/A   Overcast
6:14 AM 54.5 °F - 42.6 °F 64% 29.94 in 10.0 mi South 5.8 mph - N/A   Overcast
6:33 AM 54.5 °F - 43.0 °F 65% 29.93 in 10.0 mi South 5.8 mph - N/A   Overcast
6:53 AM 56.5 °F - 45.1 °F 66% 29.91 in 10.0 mi South 11.5 mph 18.4 mph N/A Rain Light Rain
7:14 AM 56.5 °F - 47.5 °F 72% 29.90 in 10.0 mi South 12.7 mph 20.7 mph N/A Rain Light Rain
7:33 AM 56.3 °F - 48.2 °F 74% 29.90 in 10.0 mi South 9.2 mph 24.2 mph N/A   Overcast
7:53 AM 56.3 °F - 48.7 °F 76% 29.90 in 10.0 mi South 9.2 mph 20.7 mph N/A Rain Light Rain
8:13 AM 55.8 °F - 48.7 °F 77% 29.90 in 10.0 mi South 8.1 mph 20.7 mph N/A   Overcast
8:33 AM 55.2 °F - 49.3 °F 80% 29.91 in 10.0 mi South 8.1 mph 19.6 mph N/A Rain Rain
8:54 AM 54.7 °F - 49.6 °F 83% 29.91 in 5.0 mi SSW 8.1 mph 18.4 mph N/A Rain Light Rain
9:13 AM 54.0 °F - 50.2 °F 87% 29.91 in 4.0 mi South 8.1 mph 17.3 mph N/A Rain Rain
9:33 AM 54.0 °F - 50.5 °F 88% 29.90 in 5.0 mi South 9.2 mph 19.6 mph N/A Rain Rain
9:53 AM 54.1 °F - 50.9 °F 89% 29.89 in 7.0 mi SSW 3.5 mph 18.4 mph N/A Rain Rain
10:13 AM 54.7 °F - 51.1 °F 88% 29.88 in 10.0 mi South 10.4 mph 19.6 mph N/A Rain Light Rain
10:34 AM 54.9 °F - 51.3 °F 88% 29.88 in 10.0 mi South 10.4 mph 17.3 mph N/A Rain Light Rain
10:53 AM 55.4 °F - 51.4 °F 87% 29.88 in 7.0 mi South 10.4 mph 21.9 mph N/A   Overcast
11:13 AM 55.4 °F - 51.4 °F 87% 29.86 in 7.0 mi SSW 5.8 mph 19.6 mph N/A Rain Light Rain
11:34 AM 55.2 °F - 51.8 °F 88% 29.86 in 4.0 mi South 8.1 mph - N/A Rain Rain
11:53 AM 55.0 °F - 51.8 °F 89% 29.85 in 5.0 mi SSW 8.1 mph 16.1 mph N/A Rain Rain
12:13 PM 54.9 °F - 51.8 °F 89% 29.84 in 4.0 mi SSW 5.8 mph - N/A Rain Rain
12:34 PM 54.9 °F - 51.8 °F 89% 29.83 in 5.0 mi SSW 10.4 mph 16.1 mph N/A Rain Light Rain
12:53 PM 54.9 °F - 51.8 °F 89% 29.82 in 7.0 mi SSW 5.8 mph - N/A Rain Light Rain
1:13 PM 54.7 °F - 51.4 °F 89% 29.81 in 10.0 mi SSW 10.4 mph 17.3 mph N/A Rain Rain
1:34 PM 54.7 °F - 51.4 °F 89% 29.80 in 7.0 mi South 9.2 mph 20.7 mph N/A Rain Rain
1:53 PM 54.9 °F - 51.8 °F 89% 29.78 in 7.0 mi South 3.5 mph - N/A Rain Light Rain
2:13 PM 55.2 °F - 51.8 °F 88% 29.77 in 10.0 mi South 10.4 mph 17.3 mph N/A   Overcast
2:33 PM 55.6 °F - 51.8 °F 87% 29.78 in 10.0 mi SSW 5.8 mph - N/A   Overcast
2:53 PM 55.4 °F - 51.4 °F 87% 29.79 in 10.0 mi SSW 11.5 mph 21.9 mph N/A   Overcast
3:14 PM 55.4 °F - 51.3 °F 86% 29.81 in 10.0 mi SW 15.0 mph 25.3 mph N/A   Overcast
3:33 PM 55.4 °F - 51.3 °F 86% 29.80 in 10.0 mi SSW 8.1 mph 24.2 mph N/A   Overcast
3:53 PM 55.4 °F - 51.4 °F 87% 29.80 in 7.0 mi SW 13.8 mph 23.0 mph N/A   Overcast
4:14 PM 55.0 °F - 51.8 °F 89% 29.80 in 4.0 mi SSW 10.4 mph 18.4 mph N/A Rain Light Rain
4:33 PM 54.9 °F - 51.8 °F 89% 29.80 in 10.0 mi SSW 8.1 mph - N/A   Overcast
4:53 PM 54.9 °F - 51.3 °F 88% 29.80 in 3.0 mi SW 12.7 mph 19.6 mph N/A   Overcast
5:14 PM 54.7 °F - 51.4 °F 89% 29.80 in 7.0 mi SW 15.0 mph 20.7 mph N/A   Overcast
5:33 PM 54.9 °F - 51.6 °F 89% 29.81 in 3.0 mi SW 11.5 mph 20.7 mph N/A   Overcast
5:53 PM 53.1 °F - 49.1 °F 86% 29.84 in 5.0 mi West 23.0 mph 31.1 mph N/A Rain Light Rain
6:14 PM 48.9 °F - 45.0 °F 86% 29.87 in 7.0 mi West 18.4 mph 29.9 mph N/A Rain Light Rain
6:33 PM 47.5 °F - 43.2 °F 85% 29.88 in 10.0 mi West 15.0 mph 21.9 mph N/A   Overcast
6:53 PM 46.6 °F - 42.4 °F 85% 29.89 in 10.0 mi West 13.8 mph 24.2 mph N/A   Overcast
7:14 PM 46.2 °F 39.8 °F 42.4 °F 87% 29.91 in 10.0 mi West 15.0 mph 19.6 mph N/A   Overcast
7:33 PM 45.5 °F 39.6 °F 41.9 °F 87% 29.92 in 10.0 mi West 12.7 mph 19.6 mph N/A   Overcast
7:54 PM 45.1 °F 38.4 °F 41.2 °F 86% 29.94 in 7.0 mi West 15.0 mph 23.0 mph N/A   Overcast
8:13 PM 44.8 °F 37.7 °F 41.0 °F 87% 29.95 in 10.0 mi West 16.1 mph 21.9 mph N/A   Overcast
8:33 PM 44.6 °F 37.8 °F 40.3 °F 85% 29.95 in 10.0 mi West 15.0 mph 21.9 mph N/A   Overcast
8:54 PM 44.2 °F 38.4 °F 39.4 °F 83% 29.97 in 10.0 mi WNW 11.5 mph 18.4 mph N/A   Overcast
9:13 PM 44.1 °F 38.1 °F 39.2 °F 83% 29.97 in 10.0 mi WNW 11.5 mph - N/A   Overcast
9:33 PM 43.0 °F 37.2 °F 39.7 °F 88% 29.97 in 4.0 mi NW 10.4 mph 18.4 mph N/A Rain Light Rain
9:54 PM 42.8 °F 36.2 °F 39.4 °F 88% 29.97 in 10.0 mi NW 12.7 mph 18.4 mph N/A   Overcast
10:13 PM 42.8 °F 36.6 °F 38.5 °F 85% 29.97 in 10.0 mi WNW 11.5 mph 17.3 mph N/A   Overcast
10:33 PM 42.6 °F 37.2 °F 37.6 °F 82% 29.99 in 10.0 mi WNW 9.2 mph - N/A   Overcast
10:54 PM 42.4 °F 36.1 °F 37.6 °F 83% 30.00 in 10.0 mi WNW 11.5 mph - N/A   Overcast
11:13 PM 41.9 °F 35.4 °F 37.4 °F 84% 29.99 in 10.0 mi WNW 11.5 mph - N/A   Overcast
11:33 PM 41.9 °F 36.3 °F 37.6 °F 85% 30.00 in 10.0 mi WNW 9.2 mph 18.4 mph N/A   Overcast
11:54 PM 41.9 °F 36.9 °F 37.4 °F 84% 30.00 in 10.0 mi NW 8.1 mph 16.1 mph N/A   Overcast